Regional Weather Roundup
Issued by NWS

Home | Current Version | Previous Version | Text Only | Print | Product List | Glossary On
Versions: 1 2 3 4 5 6 7 8 9 10 11 12 13 14 15 16 17 18 19 20 21 22 23 24 25 26 27 28 29 30 31 32 33 34 35 36 37 38 39 40 41 42 43 44 45 46 47 48 49 50
000
ASUS46 KPQR 171810
RWROR

OREGON REGIONAL WEATHER ROUNDUP
NATIONAL WEATHER SERVICE PORTLAND OR
1100 AM PDT TUE OCT 17 2017

NOTE: "FAIR" INDICATES FEW OR NO CLOUDS BELOW 12,000 FEET WITH
NO SIGNIFICANT WEATHER AND/OR OBSTRUCTIONS TO VISIBILITY.

ORZ001>013-171900-
NORTHWEST OREGON


CITY           SKY/WX    TMP DP  RH WIND       PRES   REMARKS
ASTORIA        LGT RAIN  54  53  97 W10       30.11R FOG
6HR MIN TEMP:  53; 6HR MAX TEMP:  56; 6HR PCP:  0.19;

NEWPORT        CLOUDY    57  52  82 S12       30.19F
PORTLAND       CLOUDY    54  49  83 S7        30.14S
6HR MIN TEMP:  43; 6HR MAX TEMP:  54;

VANCOUVER WA   CLOUDY    54  50  86 SE6       30.13S
6HR MIN TEMP:  46; 6HR MAX TEMP:  54;

SCAPPOOSE      CLOUDY    50  49  96 SE6       30.13S
6HR MIN TEMP:  36; 6HR MAX TEMP:  50;

HILLSBORO      CLOUDY    50  49  96 CALM      30.13S FOG
6HR MIN TEMP:  41; 6HR MAX TEMP:  50;

AURORA         CLOUDY    56  50  80 S10       30.15S
6HR MIN TEMP:  42; 6HR MAX TEMP:  56;

MCMINNVILLE    CLOUDY    56  51  84 S7        30.15S
6HR MIN TEMP:  40; 6HR MAX TEMP:  56;

SALEM          PTSUNNY   58  48  69 S13       30.15S
6HR MIN TEMP:  42; 6HR MAX TEMP:  58;

CORVALLIS      MOSUNNY   56  49  77 S13       30.19F
EUGENE         PTSUNNY   55  49  80 S9        30.21R
6HR MIN TEMP:  39; 6HR MAX TEMP:  55;

$$

ORZ021-028-171900-
SOUTHWEST OREGON


CITY           SKY/WX    TMP DP  RH WIND       PRES   REMARKS
NORTH BEND     CLOUDY    55  50  83 SE10      30.23S
6HR MIN TEMP:  49; 6HR MAX TEMP:  55;

BROOKINGS      MOSUNNY   58  48  69 CALM      30.20R
ROSEBURG       MOSUNNY   53  46  77 VRB5      30.22S
6HR MIN TEMP:  43; 6HR MAX TEMP:  53;

GRANTS PASS    FAIR      54  37  54 CALM      30.25F
MEDFORD        MOSUNNY   53  36  52 N3        30.21F
6HR MIN TEMP:  39; 6HR MAX TEMP:  53;

$$

ORZ014>016-041-171900-
COLUMBIA GORGE


CITY           SKY/WX    TMP DP  RH WIND       PRES   REMARKS
TROUTDALE      CLOUDY    54  48  80 CALM      30.14S
6HR MIN TEMP:  40; 6HR MAX TEMP:  54;

HOOD RIVER     CLOUDY    55  45  67 W10G20    30.06F
THE DALLES     SUNNY     61  48  62 N9        30.03F
6HR MIN TEMP:  39; 6HR MAX TEMP:  61;

$$

ORZ029>031-041-044-049-050-061>064-502-503-505>511-171900-
EASTERN OREGON


CITY           SKY/WX    TMP DP  RH WIND       PRES   REMARKS
MADRAS         MOSUNNY   64  57  77 S16G23    30.10R
REDMOND        PTSUNNY   59  33  37 SE5       30.13S
6HR MIN TEMP:  36; 6HR MAX TEMP:  60;

BEND           PTSUNNY   64  32  29 SW16G24   30.13F
PRINEVILLE     CLOUDY    54  36  50 VRB3      30.14F
KLAMATH FALLS  SUNNY     53  31  42 VRB3      30.25F
6HR MIN TEMP:  29; 6HR MAX TEMP:  53;

LAKEVIEW       PTSUNNY   48  23  37 VRB3      30.27S
HERMISTON      PTSUNNY   62  39  42 SW10      29.98F
6HR MIN TEMP:  37; 6HR MAX TEMP:  62;

PENDLETON      SUNNY     59  34  38 SW7       30.00F
6HR MIN TEMP:  42; 6HR MAX TEMP:  62;

JOHN DAY       CLOUDY    56  36  46 W3        30.14R
MEACHAM        CLOUDY    60  31  33 VRB5      30.08R
6HR MIN TEMP:  29; 6HR MAX TEMP:  60;

LA GRANDE      CLOUDY    57  28  33 S20       30.09F
6HR MIN TEMP:  52; 6HR MAX TEMP:  57;

BAKER CITY     CLOUDY    51  30  44 W3        30.14F
6HR MIN TEMP:  25; 6HR MAX TEMP:  51;

BURNS          CLOUDY    52  30  43 CALM      30.20S
6HR MIN TEMP:  25; 6HR MAX TEMP:  52;

ROME             N/A     57  23  26 CALM      30.18F
6HR MIN TEMP:  29; 6HR MAX TEMP:  57;

ONTARIO        NOT AVBL
$$



USA.gov is the U.S. government's official web portal to all federal, state and local government web resources and services.